User: anonymous   Login
Location: Santa Barbara
(34.4500°N, 119.7700°W)
Time: 16:39:01
(UTC-07:00)
Language:

Cosmos 1892 Rocket - Orbit

View from above orbital plane
View from above orbital plane
View from above satellite
View from above satellite

Ground track
Ground track

The orbit data is extracted from the following two-line orbital elements,

1 18422U 87088B   16211.35728492  .00000061  00000-0  45306-5 0  9999
2 18422  82.5132 119.3745 0021074  64.4417  74.4497 14.82873628553973
Epoch (UTC): 29 July 2016 08:34:29
Eccentricity: 0.0021074
inclination: 82.5132°
perigee height: 605 km
apogee height: 635 km
right ascension of ascending node: 119.3745°
argument of perigee: 64.4417°
revolutions per day: 14.82873628
mean anomaly at epoch: 74.4497°
orbit number at epoch: 55397

The dashed part of the orbit path shows where the satellite is in the earth's shadow,  

DLR